Weather History for Ortonville, MN

Change the Weather History Date:

Wednesday, April 23, 2014

  Actual Average (KAQP) Record (KAQP)
Temperature  
Mean Temperature 46 °F -  
Max Temperature 51 °F 58 °F 120 °F (1997)
Min Temperature 41 °F 34 °F 21 °F (2013)
Degree Days  
Heating Degree Days 19    
Moisture  
Dew Point 36 °F    
Average Humidity 75    
Maximum Humidity 87    
Minimum Humidity 47    
Precipitation  
Precipitation 0.16 in - - ()
Sea Level Pressure  
Sea Level Pressure 29.86 in    
Wind  
Wind Speed 17 mph (SE)    
Max Wind Speed 26 mph    
Max Gust Speed 36 mph    
Visibility 10 miles    
Events Rain , Thunderstorm    
Averages and records for this station are not official NWS values.
T = Trace of Precipitation, MM = Missing Value Source: NWS Daily Summary

Daily Weather History Graph

Daily Weather History Graph

Search for Another Location

Airport:

Trip Planner

Search our weather history database for the weather conditions in past years. The results will help you decide how hot, cold, wet, or windy it might be!

Date:

Astronomy

Apr. 23, 2014 Rise Set
Actual Time 6:26 AM CDT 8:21 PM CDT
Civil Twilight 5:55 AM CDT 8:53 PM CDT
Nautical Twilight 5:16 AM CDT 9:32 PM CDT
Astronomical Twilight 4:34 AM CDT 10:15 PM CDT
Moon 3:16 AM CDT (4/23) 2:15 PM CDT (4/23)
Length of Visible Light 14h 58m
Length of Day
13h 55m
Waning Crescent, 34% of the Moon is Illuminated
Apr 23
Waning Crescent
Apr 29
New
May 6
First Quarter
May 14
Full
May 21
Last Quarter

Hourly Weather History & Observations

Time (CDT) Temp. Windchill Dew Point Humidity Pressure Visibility Wind Dir Wind Speed Gust Speed Precip Events Conditions
12:13 AM 51.8 °F - 33.8 °F 50% 29.96 in 10.0 mi SE 15.0 mph - N/A   Scattered Clouds
12:34 AM 51.8 °F - 33.8 °F 50% 29.96 in 10.0 mi SE 15.0 mph 20.7 mph N/A   Mostly Cloudy
12:54 AM 51.8 °F - 33.8 °F 50% 29.96 in 10.0 mi SE 17.3 mph - N/A   Scattered Clouds
1:13 AM 51.8 °F - 32.0 °F 47% 29.96 in 10.0 mi SE 15.0 mph 20.7 mph N/A   Clear
1:34 AM 50.0 °F - 32.0 °F 50% 29.96 in 10.0 mi SE 16.1 mph - N/A   Scattered Clouds
1:53 AM 50.0 °F - 32.0 °F 50% 29.96 in 10.0 mi SE 16.1 mph - N/A   Mostly Cloudy
2:14 AM 50.0 °F - 32.0 °F 50% 29.96 in 10.0 mi SE 16.1 mph 20.7 mph N/A   Light Drizzle
2:34 AM 48.2 °F - 33.8 °F 58% 29.96 in 10.0 mi SE 16.1 mph - N/A Rain Light Rain
2:53 AM 46.4 °F 39.8 °F 35.6 °F 66% 29.96 in 10.0 mi SE 16.1 mph - N/A   Light Drizzle
3:14 AM 46.4 °F 40.1 °F 35.6 °F 66% 29.96 in 10.0 mi SE 15.0 mph 18.4 mph N/A Rain Light Rain
3:34 AM 46.4 °F 40.7 °F 37.4 °F 71% 29.95 in 10.0 mi SE 12.7 mph 18.4 mph N/A Rain Rain
3:53 AM 44.6 °F 37.4 °F 37.4 °F 76% 29.95 in 10.0 mi ESE 16.1 mph - 0.01 in Rain Rain
4:14 AM 44.6 °F 37.4 °F 37.4 °F 76% 29.96 in 10.0 mi ESE 16.1 mph - 0.01 in Rain Rain
4:34 AM 44.6 °F 38.1 °F 37.4 °F 76% 29.96 in 10.0 mi ESE 13.8 mph 20.7 mph 0.01 in Rain Rain
4:53 AM 44.6 °F 38.4 °F 37.4 °F 76% 29.96 in 10.0 mi SE 12.7 mph - 0.02 in Rain Light Rain
5:14 AM 44.6 °F 38.1 °F 37.4 °F 76% 29.96 in 10.0 mi SE 13.8 mph - N/A   Light Drizzle
5:33 AM 44.6 °F 38.4 °F 37.4 °F 76% 29.95 in 10.0 mi ESE 12.7 mph 19.6 mph N/A   Drizzle
5:54 AM 42.8 °F 34.5 °F 37.4 °F 81% 29.92 in 10.0 mi ESE 18.4 mph - N/A Rain Light Rain
6:14 AM 42.8 °F 34.8 °F 37.4 °F 81% 29.92 in 10.0 mi ESE 17.3 mph 26.5 mph N/A   Overcast
6:33 AM 44.6 °F 37.2 °F 37.4 °F 76% 29.92 in 10.0 mi ESE 17.3 mph 23.0 mph N/A   Light Drizzle
6:54 AM 42.8 °F 36.2 °F 37.4 °F 81% 29.94 in 10.0 mi ESE 12.7 mph 21.9 mph 0.01 in Rain Rain
7:14 AM 42.8 °F 35.4 °F 37.4 °F 81% 29.95 in 10.0 mi SE 15.0 mph - 0.01 in Rain , Thunderstorm Light Thunderstorms and Rain
7:34 AM 42.8 °F 34.3 °F 37.4 °F 81% 29.93 in 10.0 mi ESE 19.6 mph - N/A Rain Heavy Rain
7:54 AM 42.8 °F 34.3 °F 37.4 °F 81% 29.92 in 10.0 mi ESE 19.6 mph 24.2 mph 0.03 in Rain Rain
8:14 AM 42.8 °F - 37.4 °F 81% 29.91 in 10.0 mi North - - N/A Rain Light Rain
8:32 AM 42.8 °F - 37.4 °F 81% 29.90 in 10.0 mi Calm Calm - N/A   Overcast
8:54 AM 42.8 °F 35.1 °F 37.4 °F 81% 29.91 in 10.0 mi ESE 16.1 mph 24.2 mph N/A   Overcast
9:14 AM 42.8 °F 35.8 °F 37.4 °F 81% 29.92 in 10.0 mi ESE 13.8 mph 23.0 mph N/A   Overcast
9:34 AM 42.8 °F 34.5 °F 37.4 °F 81% 29.91 in 10.0 mi ESE 18.4 mph 23.0 mph N/A   Overcast
9:54 AM 42.8 °F 34.3 °F 35.6 °F 76% 29.90 in 10.0 mi SE 19.6 mph 24.2 mph N/A   Overcast
10:14 AM 42.8 °F 34.5 °F 35.6 °F 76% 29.90 in 10.0 mi SE 18.4 mph 24.2 mph N/A   Mostly Cloudy
10:33 AM 42.8 °F 34.3 °F 37.4 °F 81% 29.90 in 10.0 mi SE 19.6 mph 27.6 mph N/A Rain Light Rain
10:54 AM 42.8 °F 33.3 °F 37.4 °F 81% 29.89 in 7.0 mi SE 24.2 mph 31.1 mph 0.04 in Rain Rain
11:14 AM 42.8 °F 33.8 °F 37.4 °F 81% 29.89 in 10.0 mi SE 21.9 mph 28.8 mph 0.04 in Rain Light Rain
11:34 AM 41.0 °F 31.4 °F 37.4 °F 87% 29.88 in 10.0 mi SE 21.9 mph 28.8 mph 0.05 in Rain Rain
12:13 PM 42.8 °F 33.1 °F 37.4 °F 81% 29.87 in 10.0 mi SE 25.3 mph 31.1 mph N/A   Overcast
12:34 PM 42.8 °F 32.9 °F 35.6 °F 76% 29.85 in 10.0 mi SE 26.5 mph - N/A   Overcast
12:54 PM 42.8 °F 33.8 °F 35.6 °F 76% 29.83 in 10.0 mi SE 21.9 mph 29.9 mph N/A   Overcast
1:14 PM 42.8 °F 35.1 °F 37.4 °F 81% 29.83 in 10.0 mi ESE 16.1 mph 26.5 mph N/A   Overcast
1:34 PM 42.8 °F 34.8 °F 35.6 °F 76% 29.83 in 10.0 mi ESE 17.3 mph 25.3 mph N/A   Light Drizzle
1:53 PM 42.8 °F 34.0 °F 35.6 °F 76% 29.81 in 10.0 mi ESE 20.7 mph 28.8 mph N/A   Light Drizzle
2:14 PM 42.8 °F 33.8 °F 35.6 °F 76% 29.80 in 10.0 mi ESE 21.9 mph 32.2 mph N/A   Overcast
2:34 PM 42.8 °F 33.8 °F 35.6 °F 76% 29.80 in 10.0 mi ESE 21.9 mph 32.2 mph N/A   Overcast
3:14 PM 42.8 °F 33.5 °F 35.6 °F 76% 29.80 in 10.0 mi ESE 23.0 mph 34.5 mph N/A   Overcast
3:34 PM 42.8 °F 33.8 °F 35.6 °F 76% 29.79 in 10.0 mi ESE 21.9 mph 35.7 mph N/A   Overcast
3:53 PM 42.8 °F 33.5 °F 35.6 °F 76% 29.80 in 10.0 mi ESE 23.0 mph 34.5 mph N/A   Overcast
4:14 PM 42.8 °F 33.3 °F 35.6 °F 76% 29.79 in 10.0 mi SE 24.2 mph 32.2 mph N/A   Overcast
4:33 PM 42.8 °F 33.5 °F 35.6 °F 76% 29.80 in 10.0 mi SE 23.0 mph 33.4 mph N/A   Mostly Cloudy
4:54 PM 42.8 °F 33.5 °F 35.6 °F 76% 29.79 in 10.0 mi SE 23.0 mph 32.2 mph N/A   Overcast
5:14 PM 42.8 °F 33.1 °F 35.6 °F 76% 29.77 in 10.0 mi SE 25.3 mph 31.1 mph N/A   Overcast
5:33 PM 42.8 °F 34.3 °F 35.6 °F 76% 29.77 in 10.0 mi ESE 19.6 mph 32.2 mph N/A Thunderstorm Overcast
5:54 PM 42.8 °F 32.9 °F 35.6 °F 76% 29.77 in 10.0 mi SE 26.5 mph 32.2 mph N/A   Overcast
6:14 PM 42.8 °F 33.3 °F 35.6 °F 76% 29.77 in 10.0 mi SE 24.2 mph 33.4 mph N/A   Overcast
6:54 PM 42.8 °F 34.3 °F 35.6 °F 76% 29.76 in 10.0 mi ESE 19.6 mph 31.1 mph N/A   Overcast
7:14 PM 42.8 °F 33.8 °F 35.6 °F 76% 29.76 in 10.0 mi ESE 21.9 mph 28.8 mph N/A   Overcast
7:54 PM 42.8 °F 34.3 °F 35.6 °F 76% 29.76 in 10.0 mi ESE 19.6 mph 25.3 mph N/A   Overcast
8:13 PM 42.8 °F 34.5 °F 35.6 °F 76% 29.76 in 10.0 mi ESE 18.4 mph 26.5 mph N/A   Overcast
8:34 PM 42.8 °F 34.3 °F 35.6 °F 76% 29.76 in 10.0 mi ESE 19.6 mph 24.2 mph N/A   Overcast
8:53 PM 42.8 °F 33.8 °F 35.6 °F 76% 29.76 in 10.0 mi ESE 21.9 mph 29.9 mph N/A   Overcast
9:14 PM 42.8 °F 34.3 °F 35.6 °F 76% 29.77 in 10.0 mi ESE 19.6 mph 26.5 mph N/A Rain Rain
9:34 PM 41.0 °F 31.9 °F 35.6 °F 81% 29.77 in 10.0 mi ESE 19.6 mph 27.6 mph N/A   Light Drizzle
9:53 PM 41.0 °F 31.9 °F 35.6 °F 81% 29.77 in 10.0 mi ESE 19.6 mph 26.5 mph N/A   Light Drizzle
10:14 PM 41.0 °F 32.2 °F 35.6 °F 81% 29.76 in 10.0 mi ESE 18.4 mph 25.3 mph N/A Rain Rain
10:33 PM 41.0 °F 33.1 °F 37.4 °F 87% 29.76 in 10.0 mi ESE 15.0 mph 23.0 mph N/A Rain Light Rain
10:54 PM 41.0 °F 34.3 °F 35.6 °F 81% 29.78 in 10.0 mi ESE 11.5 mph 19.6 mph N/A   Mostly Cloudy
11:14 PM 42.8 °F 34.8 °F 37.4 °F 81% 29.77 in 10.0 mi SE 17.3 mph 23.0 mph N/A   Mostly Cloudy
11:34 PM 42.8 °F 35.4 °F 37.4 °F 81% 29.76 in 10.0 mi ESE 15.0 mph 20.7 mph N/A   Overcast
11:54 PM 42.8 °F 35.1 °F 37.4 °F 81% 29.77 in 10.0 mi SE 16.1 mph 20.7 mph N/A   Overcast